CZ-6A DEB, 56613

Orbit data source: Space-Track

CZ-6A DEB, 56613 is space debris in SSO originally from a launch on Fri, 11 Nov 2022 UTC launched from the Taiyaun Space Center, China (TSC). Debris objects in space refer to the collection of defunct objects orbiting the Earth. Examples of debris include non-operational satellites, rocket bodies, and fragments generated from explosions, collisions, or faulty payload assembly.

Loading next visibility...
Identifier
56613, 2022-151AEM
Orbit
SSO
Country
Flag of CNCN / PRC
Related business
Manufacturer
SAST
Mission
Spacecraft
Bus & Motor
Unknown
Mass
Unknown
Launch date (UTC)
2022-11-11 (3 years ago)
Launch vehicle
Unknown
Launch site
Taiyaun Space Center, China (TSC)
Object type
Payload
Rocket body
Debris
Shape & HBR
Unknown shape, 0.1 m
Radar Cross Section
Small (<0.1 m²)

Expand to show TLE details & history
Last TLE update: 19 hours ago

TLE from 19 hours ago
0 CZ-6A DEB
1 56613U 22151AEM 25348.80024149  .00001408  00000-0  65652-3 0  9992
2 56613  98.8182   9.0139 0003776 100.5715 259.5888 14.22089891142010
Epoch: 2025-12-14T19:12Z
TLE epoch observation values (Epoch: 2025-12-14T19:12:20.864Z)
Latitude
-0.00002°
Longitude
-2.78099°
Altitude
821.7 km
Speed
7.442 km/s
True Right ascension
00h 36m 03s
True Declination
0° 00' 00"
Sunlit
Object was in daylight at epoch
Visualization orbit readout
Latitude
Unknown
Longitude
Unknown
Altitude
Unknown
Speed
Unknown
Apparent Right ascension
Unknown
Apparent Declination
Unknown
Sunlit
N/A
Visualization observer readout
Local Sidereal Time
13:18:18
Azimuth
Unknown
Elevation
Unknown
Doppler factor
Unknown
Orbital elements
Apogee altitude
818.171 km
Perigee altitude
812.738 km
Semi-major axis
7,193.592 km
Eccentricity
0.00038
Inclination
98.8182°
RAAN
9.0139°
Arg. of periapsis
100.5715°
True anomaly
259.54625°
Mean anomaly
259.5888°
Eccentric anomaly
259.56752°
Mean motion
3.55733 °/min
Orbital period
101.2 mins
BSTAR
0.00065652
Loading maneuver chart data...
Computing Atmospheric mass density...
Loading historical data...
Loading historical data...
Loading historical data...
Loading historical data...
Loading historical data...
Loading historical data...
Loading historical data...

Documentation

Showing up to 5 results
|